| time (UTC) | temp F | wind direction | speed knots | gust knots | rain 1hr in | rain 24hr in | rain mn in | humidity % | barometer mb |
| 20260509064936 | 70 | 187 | 0.9 | 1.7 | 0.00 | 0.00 | 0.00 | 89 | 1012.3 |
| 20260509064435 | 70 | 13 | 0.0 | 0.9 | 0.00 | 0.00 | 0.00 | 89 | 1011.9 |
| 20260509063933 | 70 | 222 | 0.0 | 0.9 | 0.00 | 0.00 | 0.00 | 89 | 1011.7 |
| 20260509063432 | 70 | 349 | 0.0 | 0.9 | 0.00 | 0.00 | 0.00 | 89 | 1011.9 |
| 20260509062930 | 70 | 331 | 0.0 | 2.6 | 0.00 | 0.00 | 0.00 | 89 | 1011.9 |
| 20260509062427 | 70 | 37 | 0.0 | 0.9 | 0.00 | 0.00 | 0.00 | 88 | 1012.1 |
| 20260509061925 | 70 | 233 | 0.0 | 1.7 | 0.00 | 0.00 | 0.00 | 88 | 1012.1 |
| 20260509061422 | 70 | 115 | 0.0 | 0.9 | 0.00 | 0.00 | 0.00 | 87 | 1012.3 |
| 20260509060919 | 70 | 230 | 0.9 | 1.7 | 0.00 | 0.00 | 0.00 | 87 | 1012.0 |
| 20260509060416 | 70 | 131 | 0.9 | 0.9 | 0.00 | 0.00 | 0.00 | 87 | 1012.5 |
| 20260509055911 | 70 | 222 | 0.9 | 1.7 | 0.00 | 0.00 | 0.00 | 87 | 1012.7 |
| 20260509055407 | 71 | 58 | 0.0 | 0.0 | 0.00 | 0.00 | 0.00 | 86 | 1012.5 |
| 20260509054904 | 71 | 165 | 0.0 | 0.9 | 0.00 | 0.00 | 0.00 | 86 | 1012.7 |
| 20260509054401 | 71 | 239 | 0.0 | 0.0 | 0.00 | 0.00 | 0.00 | 85 | 1013.0 |
| 20260509053859 | 71 | 344 | 0.0 | 0.0 | 0.00 | 0.00 | 0.00 | 85 | 1012.9 |
| 20260509053356 | 71 | 140 | 0.0 | 1.7 | 0.00 | 0.00 | 0.00 | 84 | 1012.6 |
| 20260509052854 | 71 | 216 | 0.9 | 0.9 | 0.00 | 0.00 | 0.00 | 85 | 1012.9 |
| 20260509052351 | 70 | 293 | 0.0 | 0.0 | 0.00 | 0.00 | 0.00 | 86 | 1013.2 |
| 20260509051849 | 70 | 294 | 0.0 | 0.9 | 0.00 | 0.00 | 0.00 | 86 | 1013.6 |
| 20260509051347 | 70 | 346 | 0.0 | 0.0 | 0.00 | 0.00 | 0.00 | 85 | 1013.5 |
| 20260509050843 | 70 | 331 | 0.0 | 0.9 | 0.00 | 0.00 | 0.00 | 85 | 1013.2 |
| 20260509050340 | 70 | 337 | 0.0 | 0.0 | 0.00 | 0.00 | 0.00 | 85 | 1012.5 |
| 20260509045837 | 71 | 5 | 0.0 | 0.9 | 0.00 | 0.00 | 0.00 | 84 | 1011.9 |
| 20260509045334 | 71 | 185 | 0.0 | 0.9 | 0.00 | 0.00 | 0.00 | 84 | 1012.0 |
| 20260509044831 | 71 | 273 | 0.0 | 0.0 | 0.00 | 0.00 | 0.00 | 83 | 1012.2 |
| 20260509044329 | 71 | 0 | 0.0 | 0.9 | 0.00 | 0.00 | 0.00 | 83 | 1011.8 |
| 20260509043825 | 71 | 23 | 0.0 | 1.7 | 0.00 | 0.00 | 0.00 | 83 | 1011.7 |
| 20260509043321 | 71 | 174 | 0.0 | 1.7 | 0.00 | 0.00 | 0.00 | 82 | 1011.7 |
| 20260509042817 | 71 | 148 | 0.0 | 1.7 | 0.00 | 0.00 | 0.00 | 82 | 1011.9 |
| 20260509042314 | 71 | 156 | 0.9 | 1.7 | 0.00 | 0.00 | 0.00 | 82 | 1011.6 |
| 20260509041810 | 71 | 179 | 0.0 | 2.6 | 0.00 | 0.00 | 0.00 | 82 | 1011.9 |
| 20260509041308 | 72 | 87 | 1.7 | 2.6 | 0.00 | 0.00 | 0.00 | 81 | 1011.5 |
| 20260509040806 | 72 | 143 | 1.7 | 1.7 | 0.00 | 0.00 | 0.00 | 80 | 1012.5 |
| 20260509040303 | 72 | 126 | 0.0 | 0.9 | 0.00 | 0.00 | 0.00 | 80 | 1012.4 |
| 20260509035800 | 72 | 61 | 0.0 | 0.0 | 0.00 | 0.00 | 0.00 | 80 | 1012.7 |
| 20260509035256 | 72 | 294 | 0.0 | 0.0 | 0.00 | 0.00 | 0.00 | 80 | 1012.8 |
| 20260509034753 | 72 | 305 | 0.0 | 0.0 | 0.00 | 0.00 | 0.00 | 80 | 1012.7 |
| 20260509034251 | 72 | 63 | 0.0 | 0.0 | 0.00 | 0.00 | 0.00 | 80 | 1013.0 |
| 20260509033748 | 72 | 10 | 0.0 | 0.0 | 0.00 | 0.00 | 0.00 | 80 | 1012.8 |
| 20260509033245 | 72 | 12 | 0.0 | 0.0 | 0.00 | 0.00 | 0.00 | 80 | 1012.7 |
| 20260509032742 | 72 | 54 | 0.0 | 0.0 | 0.00 | 0.00 | 0.00 | 80 | 1012.5 |
| 20260509032239 | 72 | 349 | 0.0 | 0.0 | 0.00 | 0.00 | 0.00 | 80 | 1012.2 |
| 20260509031736 | 72 | 213 | 0.0 | 0.0 | 0.00 | 0.00 | 0.00 | 80 | 1012.4 |
| 20260509031233 | 72 | 336 | 0.0 | 0.9 | 0.00 | 0.00 | 0.00 | 80 | 1012.2 |
| 20260509030731 | 72 | 219 | 0.0 | 0.9 | 0.00 | 0.00 | 0.00 | 80 | 1012.1 |
| 20260509030229 | 72 | 220 | 0.0 | 0.0 | 0.00 | 0.00 | 0.00 | 80 | 1012.3 |
| 20260509025725 | 72 | 175 | 0.0 | 2.6 | 0.00 | 0.00 | 0.00 | 79 | 1012.1 |
| 20260509025221 | 72 | 118 | 0.0 | 2.6 | 0.00 | 0.00 | 0.00 | 80 | 1011.8 |
| 20260509024716 | 72 | 27 | 0.0 | 2.6 | 0.00 | 0.00 | 0.00 | 80 | 1011.8 |
| 20260509024212 | 72 | 144 | 1.7 | 2.6 | 0.00 | 0.00 | 0.00 | 80 | 1011.5 |
| 20260509023710 | 72 | 59 | 1.7 | 2.6 | 0.00 | 0.00 | 0.00 | 80 | 1011.4 |
| 20260509023207 | 72 | 175 | 1.7 | 1.7 | 0.00 | 0.00 | 0.00 | 80 | 1011.2 |
| 20260509022703 | 72 | 190 | 0.9 | 1.7 | 0.00 | 0.00 | 0.00 | 79 | 1011.4 |
| 20260509022201 | 72 | 142 | 0.9 | 1.7 | 0.00 | 0.00 | 0.00 | 79 | 1011.2 |
| 20260509021658 | 73 | 213 | 1.7 | 3.5 | 0.00 | 0.00 | 0.00 | 78 | 1011.0 |
| 20260509021155 | 73 | 111 | 1.7 | 2.6 | 0.00 | 0.00 | 0.00 | 78 | 1011.1 |
| 20260509020653 | 73 | 106 | 1.7 | 2.6 | 0.00 | 0.00 | 0.00 | 78 | 1011.2 |
| 20260509020150 | 73 | 142 | 1.7 | 2.6 | 0.00 | 0.00 | 0.00 | 77 | 1011.1 |
| 20260509015648 | 73 | 180 | 0.9 | 1.7 | 0.00 | 0.00 | 0.00 | 77 | 1011.1 |
| 20260509015146 | 73 | 69 | 0.0 | 0.9 | 0.00 | 0.00 | 0.00 | 77 | 1011.1 |
| 20260509014642 | 73 | 151 | 0.0 | 1.7 | 0.00 | 0.00 | 0.00 | 77 | 1011.1 |
| 20260509014138 | 73 | 143 | 0.0 | 0.9 | 0.00 | 0.00 | 0.00 | 77 | 1011.2 |
| 20260509013636 | 73 | 71 | 0.0 | 0.9 | 0.00 | 0.00 | 0.00 | 77 | 1011.0 |
| 20260509013131 | 73 | 185 | 0.0 | 1.7 | 0.00 | 0.00 | 0.00 | 77 | 1011.1 |
| 20260509012628 | 73 | 149 | 0.9 | 0.9 | 0.00 | 0.00 | 0.00 | 76 | 1010.6 |
| 20260509012125 | 73 | 214 | 0.0 | 0.9 | 0.00 | 0.00 | 0.00 | 76 | 1010.8 |
| 20260509011623 | 73 | 65 | 0.0 | 0.9 | 0.00 | 0.00 | 0.00 | 76 | 1010.7 |
| 20260509011120 | 73 | 199 | 0.9 | 1.7 | 0.00 | 0.00 | 0.00 | 76 | 1010.6 |
| 20260509010617 | 73 | 196 | 0.9 | 1.7 | 0.00 | 0.00 | 0.00 | 75 | 1010.7 |
| 20260509010114 | 73 | 200 | 0.9 | 1.7 | 0.00 | 0.00 | 0.00 | 75 | 1010.7 |
| 20260509005612 | 73 | 230 | 0.0 | 0.9 | 0.00 | 0.00 | 0.00 | 75 | 1010.7 |
| 20260509005107 | 73 | 42 | 0.0 | 2.6 | 0.00 | 0.00 | 0.00 | 75 | 1010.5 |
| 20260509004604 | 73 | 159 | 1.7 | 5.2 | 0.00 | 0.00 | 0.00 | 74 | 1010.4 |
| 20260509004101 | 73 | 202 | 0.9 | 1.7 | 0.00 | 0.00 | 0.00 | 74 | 1010.3 |
| 20260509003559 | 73 | 341 | 0.9 | 1.7 | 0.00 | 0.00 | 0.00 | 74 | 1010.3 |
| 20260509003056 | 73 | 159 | 1.7 | 3.5 | 0.00 | 0.00 | 0.00 | 74 | 1010.4 |
| 20260509002554 | 74 | 72 | 1.7 | 3.5 | 0.00 | 0.00 | 0.00 | 73 | 1010.4 |
| 20260509002051 | 74 | 114 | 2.6 | 5.2 | 0.00 | 0.00 | 0.00 | 73 | 1010.3 |
| 20260509001548 | 74 | 87 | 0.9 | 2.6 | 0.00 | 0.00 | 0.00 | 72 | 1010.3 |
| 20260509001044 | 74 | 182 | 1.7 | 5.2 | 0.00 | 0.00 | 0.00 | 72 | 1010.4 |
| 20260509000542 | 74 | 125 | 2.6 | 3.5 | 0.00 | 0.00 | 0.00 | 71 | 1010.5 |
| 20260509000038 | 74 | 221 | 1.7 | 3.5 | 0.00 | 0.00 | 0.00 | 71 | 1010.5 |
| 20260508235536 | 74 | 103 | 2.6 | 5.2 | 0.00 | 0.00 | 0.00 | 70 | 1010.6 |
| 20260508235032 | 75 | 190 | 1.7 | 3.5 | 0.00 | 0.00 | 0.00 | 70 | 1010.6 |
| 20260508234530 | 75 | 119 | 0.9 | 3.5 | 0.00 | 0.00 | 0.00 | 70 | 1010.6 |
| 20260508234027 | 75 | 151 | 1.7 | 2.6 | 0.00 | 0.00 | 0.00 | 70 | 1010.8 |
| 20260508233526 | 75 | 110 | 0.9 | 3.5 | 0.00 | 0.00 | 0.00 | 69 | 1010.7 |
| 20260508233023 | 76 | 106 | 0.9 | 5.2 | 0.00 | 0.00 | 0.00 | 69 | 1010.6 |
| 20260508232520 | 76 | 93 | 1.7 | 3.5 | 0.00 | 0.00 | 0.00 | 68 | 1010.9 |
| 20260508232017 | 76 | 169 | 3.5 | 3.5 | 0.00 | 0.00 | 0.00 | 68 | 1010.7 |
| 20260508231514 | 76 | 161 | 1.7 | 5.2 | 0.00 | 0.00 | 0.00 | 68 | 1011.0 |
| 20260508231011 | 76 | 233 | 0.9 | 2.6 | 0.00 | 0.00 | 0.00 | 68 | 1010.8 |
| 20260508230508 | 75 | 140 | 0.9 | 3.5 | 0.00 | 0.00 | 0.00 | 68 | 1011.0 |
| 20260508230004 | 76 | 99 | 3.5 | 6.1 | 0.00 | 0.00 | 0.00 | 67 | 1010.9 |
| 20260508225502 | 77 | 125 | 0.0 | 3.5 | 0.00 | 0.00 | 0.00 | 67 | 1011.0 |
| 20260508224958 | 77 | 103 | 0.9 | 1.7 | 0.00 | 0.00 | 0.00 | 67 | 1011.1 |
| 20260508224456 | 77 | 157 | 1.7 | 8.7 | 0.00 | 0.00 | 0.00 | 67 | 1010.9 |
| 20260508223953 | 77 | 160 | 0.9 | 6.1 | 0.00 | 0.00 | 0.00 | 67 | 1010.8 |
| 20260508223451 | 78 | 111 | 1.7 | 2.6 | 0.00 | 0.00 | 0.00 | 66 | 1010.8 |
| 20260508222948 | 77 | 205 | 1.7 | 3.5 | 0.00 | 0.00 | 0.00 | 66 | 1010.9 |
| 20260508222446 | 79 | 164 | 3.5 | 7.0 | 0.00 | 0.00 | 0.00 | 65 | 1010.6 |
| 20260508221942 | 79 | 81 | 0.9 | 2.6 | 0.00 | 0.00 | 0.00 | 65 | 1010.7 |
| 20260508221438 | 79 | 134 | 2.6 | 3.5 | 0.00 | 0.00 | 0.00 | 64 | 1010.8 |
| 20260508220934 | 79 | 171 | 1.7 | 5.2 | 0.00 | 0.00 | 0.00 | 65 | 1010.6 |
| 20260508220431 | 79 | 217 | 1.7 | 5.2 | 0.00 | 0.00 | 0.00 | 64 | 1010.7 |
| 20260508215927 | 80 | 158 | 1.7 | 3.5 | 0.00 | 0.00 | 0.00 | 65 | 1010.8 |
| 20260508215424 | 79 | 166 | 3.5 | 5.2 | 0.00 | 0.00 | 0.00 | 65 | 1010.7 |
| 20260508214921 | 78 | 158 | 0.9 | 1.7 | 0.00 | 0.00 | 0.00 | 64 | 1010.5 |
| 20260508214419 | 79 | 247 | 1.7 | 2.6 | 0.00 | 0.00 | 0.00 | 62 | 1010.8 |
| 20260508213914 | 80 | 163 | 2.6 | 2.6 | 0.00 | 0.00 | 0.00 | 62 | 1010.8 |
| 20260508213412 | 80 | 204 | 1.7 | 2.6 | 0.00 | 0.00 | 0.00 | 62 | 1010.5 |
| 20260508212907 | 79 | 238 | 0.9 | 5.2 | 0.00 | 0.00 | 0.00 | 63 | 1010.7 |
| 20260508212404 | 80 | 155 | 1.7 | 5.2 | 0.00 | 0.00 | 0.00 | 62 | 1010.9 |
| 20260508211900 | 80 | 23 | 0.9 | 3.5 | 0.00 | 0.00 | 0.00 | 62 | 1010.8 |
| 20260508211355 | 78 | 167 | 0.0 | 2.6 | 0.00 | 0.00 | 0.00 | 64 | 1011.1 |
| 20260508210854 | 75 | 209 | 1.7 | 3.5 | 0.00 | 0.00 | 0.00 | 67 | 1011.4 |
| 20260508210350 | 75 | 115 | 0.9 | 2.6 | 0.00 | 0.00 | 0.00 | 69 | 1011.7 |
| 20260508205846 | 75 | 115 | 1.7 | 3.5 | 0.00 | 0.00 | 0.00 | 67 | 1012.0 |
| 20260508205343 | 75 | 246 | 0.9 | 2.6 | 0.00 | 0.00 | 0.00 | 68 | 1012.2 |
| 20260508204839 | 75 | 69 | 0.0 | 0.9 | 0.00 | 0.00 | 0.00 | 68 | 1012.2 |
| 20260508204336 | 75 | 215 | 0.9 | 3.5 | 0.00 | 0.00 | 0.00 | 68 | 1012.4 |
| 20260508203832 | 75 | 245 | 0.9 | 5.2 | 0.00 | 0.00 | 0.00 | 67 | 1012.6 |
| 20260508203329 | 75 | 160 | 0.9 | 3.5 | 0.00 | 0.00 | 0.00 | 67 | 1012.7 |
| 20260508202824 | 75 | 72 | 1.7 | 3.5 | 0.00 | 0.00 | 0.00 | 66 | 1012.8 |
| 20260508202323 | 76 | 82 | 0.9 | 5.2 | 0.00 | 0.00 | 0.00 | 66 | 1012.6 |
| 20260508201819 | 76 | 105 | 0.9 | 3.5 | 0.00 | 0.00 | 0.00 | 65 | 1012.7 |
| 20260508201316 | 77 | 100 | 0.9 | 2.6 | 0.00 | 0.00 | 0.00 | 64 | 1012.5 |
| 20260508200812 | 77 | 140 | 1.7 | 3.5 | 0.00 | 0.00 | 0.00 | 63 | 1012.6 |
| 20260508200309 | 78 | 51 | 0.0 | 1.7 | 0.00 | 0.00 | 0.00 | 63 | 1012.6 |
| 20260508195805 | 79 | 326 | 0.0 | 2.6 | 0.00 | 0.00 | 0.00 | 61 | 1012.6 |
| 20260508195305 | 80 | 341 | 0.9 | 6.1 | 0.00 | 0.00 | 0.00 | 60 | 1012.5 |
| 20260508194758 | 79 | 204 | 0.9 | 2.6 | 0.00 | 0.00 | 0.00 | 61 | 1012.6 |
| 20260508194255 | 80 | 102 | 0.9 | 2.6 | 0.00 | 0.00 | 0.00 | 61 | 1012.6 |
| 20260508193752 | 80 | 274 | 0.9 | 2.6 | 0.00 | 0.00 | 0.00 | 61 | 1012.6 |
| 20260508193249 | 80 | 134 | 1.7 | 2.6 | 0.00 | 0.00 | 0.00 | 62 | 1012.6 |
| 20260508192745 | 79 | 173 | 1.7 | 5.2 | 0.00 | 0.00 | 0.00 | 61 | 1012.9 |
| 20260508192243 | 80 | 105 | 2.6 | 3.5 | 0.00 | 0.00 | 0.00 | 60 | 1012.8 |
| 20260508191740 | 80 | 153 | 1.7 | 2.6 | 0.00 | 0.00 | 0.00 | 61 | 1013.1 |
| 20260508191237 | 79 | 178 | 3.5 | 3.5 | 0.00 | 0.00 | 0.00 | 61 | 1013.0 |
| 20260508190734 | 80 | 215 | 1.7 | 3.5 | 0.00 | 0.00 | 0.00 | 59 | 1013.0 |
| 20260508190229 | 80 | 178 | 2.6 | 3.5 | 0.00 | 0.00 | 0.00 | 60 | 1013.0 |
| 20260508185726 | 80 | 199 | 1.7 | 2.6 | 0.00 | 0.00 | 0.00 | 58 | 1013.0 |
| 20260508185224 | 80 | 168 | 0.9 | 6.1 | 0.00 | 0.00 | 0.00 | 58 | 1012.9 |
| 20260508184721 | 81 | 175 | 2.6 | 3.5 | 0.00 | 0.00 | 0.00 | 57 | 1013.0 |
| 20260508184218 | 81 | 289 | 1.7 | 3.5 | 0.00 | 0.00 | 0.00 | 58 | 1012.9 |
| 20260508183715 | 82 | 147 | 0.9 | 2.6 | 0.00 | 0.00 | 0.00 | 57 | 1013.1 |
| 20260508183211 | 81 | 112 | 0.9 | 5.2 | 0.00 | 0.00 | 0.00 | 58 | 1013.3 |
| 20260508182707 | 81 | 203 | 3.5 | 5.2 | 0.00 | 0.00 | 0.00 | 57 | 1013.3 |
| 20260508182204 | 80 | 152 | 1.7 | 2.6 | 0.00 | 0.00 | 0.00 | 57 | 1013.6 |
| 20260508181700 | 80 | 344 | 1.7 | 2.6 | 0.00 | 0.00 | 0.00 | 57 | 1013.5 |
| 20260508181157 | 79 | 322 | 0.9 | 2.6 | 0.00 | 0.00 | 0.00 | 58 | 1013.6 |
| 20260508180653 | 81 | 128 | 2.6 | 5.2 | 0.00 | 0.00 | 0.00 | 57 | 1013.8 |
| 20260508180151 | 79 | 170 | 0.9 | 5.2 | 0.00 | 0.00 | 0.00 | 58 | 1013.9 |
| 20260508175647 | 79 | 248 | 0.9 | 2.6 | 0.00 | 0.00 | 0.00 | 58 | 1013.9 |
| 20260508175144 | 78 | 317 | 0.9 | 3.5 | 0.00 | 0.00 | 0.00 | 59 | 1013.9 |
| 20260508174642 | 80 | 207 | 1.7 | 5.2 | 0.00 | 0.00 | 0.00 | 58 | 1014.3 |
| 20260508174138 | 78 | 297 | 0.0 | 2.6 | 0.00 | 0.00 | 0.00 | 59 | 1014.3 |
| 20260508173635 | 78 | 337 | 1.7 | 2.6 | 0.00 | 0.00 | 0.00 | 61 | 1014.3 |
| 20260508173131 | 79 | 162 | 1.7 | 3.5 | 0.00 | 0.00 | 0.00 | 60 | 1014.1 |
| 20260508172628 | 78 | 109 | 1.7 | 3.5 | 0.00 | 0.00 | 0.00 | 59 | 1014.3 |
| 20260508172125 | 78 | 169 | 1.7 | 5.2 | 0.00 | 0.00 | 0.00 | 61 | 1014.5 |
| 20260508171621 | 76 | 255 | 2.6 | 3.5 | 0.00 | 0.00 | 0.00 | 60 | 1014.8 |
| 20260508171118 | 78 | 108 | 0.9 | 3.5 | 0.00 | 0.00 | 0.00 | 59 | 1014.8 |
| 20260508170615 | 76 | 21 | 1.7 | 2.6 | 0.00 | 0.00 | 0.00 | 61 | 1014.9 |
| 20260508170113 | 74 | 221 | 0.9 | 3.5 | 0.00 | 0.00 | 0.00 | 61 | 1015.2 |
| 20260508165609 | 74 | 255 | 1.7 | 3.5 | 0.00 | 0.00 | 0.00 | 63 | 1015.4 |
| 20260508165106 | 74 | 213 | 1.7 | 5.2 | 0.00 | 0.00 | 0.00 | 63 | 1015.3 |
| 20260508164603 | 74 | 358 | 0.9 | 3.5 | 0.00 | 0.00 | 0.00 | 62 | 1015.5 |
| 20260508164059 | 75 | 110 | 2.6 | 6.1 | 0.00 | 0.00 | 0.00 | 62 | 1015.5 |
| 20260508163557 | 74 | 273 | 1.7 | 7.0 | 0.00 | 0.00 | 0.00 | 61 | 1015.8 |
| 20260508163054 | 74 | 47 | 0.9 | 1.7 | 0.00 | 0.00 | 0.00 | 63 | 1015.8 |
| 20260508162550 | 73 | 172 | 0.0 | 0.9 | 0.00 | 0.00 | 0.00 | 64 | 1015.7 |
| 20260508162048 | 72 | 28 | 0.0 | 1.7 | 0.00 | 0.00 | 0.00 | 65 | 1016.0 |
| 20260508161545 | 72 | 164 | 1.7 | 2.6 | 0.00 | 0.00 | 0.00 | 65 | 1016.0 |
| 20260508161042 | 72 | 151 | 2.6 | 3.5 | 0.00 | 0.00 | 0.00 | 65 | 1016.0 |
| 20260508160540 | 71 | 197 | 2.6 | 3.5 | 0.00 | 0.00 | 0.00 | 65 | 1016.0 |
| 20260508160037 | 71 | 178 | 0.9 | 5.2 | 0.00 | 0.00 | 0.00 | 66 | 1016.0 |
| 20260508155534 | 71 | 195 | 3.5 | 3.5 | 0.00 | 0.00 | 0.00 | 66 | 1016.1 |
| 20260508155031 | 71 | 303 | 0.9 | 5.2 | 0.00 | 0.00 | 0.00 | 66 | 1016.6 |
| 20260508154528 | 70 | 186 | 2.6 | 2.6 | 0.00 | 0.00 | 0.00 | 66 | 1016.4 |
| 20260508154025 | 70 | 66 | 0.9 | 3.5 | 0.00 | 0.00 | 0.00 | 66 | 1016.6 |
| 20260508153522 | 70 | 138 | 1.7 | 3.5 | 0.00 | 0.00 | 0.00 | 67 | 1016.4 |
| 20260508153018 | 70 | 174 | 1.7 | 5.2 | 0.00 | 0.00 | 0.00 | 67 | 1016.5 |
| 20260508152515 | 70 | 172 | 1.7 | 5.2 | 0.00 | 0.00 | 0.00 | 66 | 1016.7 |
| 20260508152011 | 69 | 347 | 0.0 | 2.6 | 0.00 | 0.00 | 0.00 | 67 | 1016.6 |
| 20260508151508 | 69 | 91 | 2.6 | 3.5 | 0.00 | 0.00 | 0.00 | 67 | 1016.6 |
| 20260508151004 | 69 | 205 | 0.9 | 2.6 | 0.00 | 0.00 | 0.00 | 68 | 1016.6 |
| 20260508150501 | 69 | 184 | 1.7 | 2.6 | 0.00 | 0.00 | 0.00 | 66 | 1016.6 |
| 20260508145956 | 70 | 293 | 0.0 | 0.9 | 0.00 | 0.00 | 0.00 | 67 | 1016.5 |
| 20260508145454 | 69 | 210 | 2.6 | 5.2 | 0.00 | 0.00 | 0.00 | 68 | 1016.4 |
| 20260508144950 | 69 | 130 | 0.9 | 3.5 | 0.00 | 0.00 | 0.00 | 67 | 1016.2 |
| 20260508144448 | 69 | 143 | 1.7 | 2.6 | 0.00 | 0.00 | 0.00 | 67 | 1016.5 |
| 20260508143945 | 69 | 109 | 1.7 | 2.6 | 0.00 | 0.00 | 0.00 | 68 | 1016.5 |
| 20260508143443 | 69 | 1 | 0.9 | 2.6 | 0.00 | 0.00 | 0.00 | 66 | 1016.6 |
| 20260508142938 | 70 | 119 | 1.7 | 3.5 | 0.00 | 0.00 | 0.00 | 66 | 1016.8 |
| 20260508142436 | 70 | 118 | 1.7 | 2.6 | 0.00 | 0.00 | 0.00 | 65 | 1016.4 |
| 20260508141932 | 70 | 62 | 0.9 | 1.7 | 0.00 | 0.00 | 0.00 | 68 | 1016.5 |
| 20260508141429 | 70 | 333 | 0.0 | 1.7 | 0.00 | 0.00 | 0.00 | 69 | 1016.9 |
| 20260508140927 | 69 | 51 | 2.6 | 3.5 | 0.00 | 0.00 | 0.00 | 69 | 1016.9 |
| 20260508140424 | 69 | 153 | 1.7 | 6.1 | 0.00 | 0.00 | 0.00 | 70 | 1016.6 |
| 20260508135919 | 69 | 112 | 2.6 | 2.6 | 0.00 | 0.00 | 0.00 | 70 | 1016.7 |
| 20260508135416 | 67 | 127 | 0.0 | 2.6 | 0.00 | 0.00 | 0.00 | 74 | 1016.7 |
| 20260508134913 | 66 | 48 | 0.0 | 1.7 | 0.00 | 0.00 | 0.00 | 76 | 1016.8 |
| 20260508134409 | 66 | 97 | 0.9 | 2.6 | 0.00 | 0.00 | 0.00 | 76 | 1016.7 |
| 20260508133906 | 66 | 145 | 0.9 | 2.6 | 0.00 | 0.00 | 0.00 | 76 | 1016.7 |
| 20260508133404 | 64 | 75 | 0.0 | 0.9 | 0.00 | 0.00 | 0.00 | 81 | 1016.7 |
| 20260508132900 | 64 | 152 | 0.9 | 1.7 | 0.00 | 0.00 | 0.00 | 82 | 1016.7 |
| 20260508132358 | 64 | 188 | 0.9 | 1.7 | 0.00 | 0.00 | 0.00 | 83 | 1016.7 |
| 20260508131855 | 64 | 152 | 0.9 | 0.9 | 0.00 | 0.00 | 0.00 | 83 | 1017.0 |
| 20260508131350 | 64 | 126 | 0.9 | 1.7 | 0.00 | 0.00 | 0.00 | 83 | 1016.7 |
| 20260508130847 | 64 | 173 | 0.0 | 0.9 | 0.00 | 0.00 | 0.00 | 84 | 1016.9 |
| 20260508130344 | 63 | 13 | 0.0 | 0.0 | 0.00 | 0.00 | 0.00 | 85 | 1016.8 |
| 20260508125840 | 62 | 128 | 0.0 | 0.9 | 0.00 | 0.00 | 0.00 | 85 | 1017.0 |
| 20260508125336 | 62 | 307 | 1.7 | 1.7 | 0.00 | 0.00 | 0.00 | 86 | 1016.8 |
| 20260508124834 | 62 | 168 | 0.9 | 0.9 | 0.00 | 0.00 | 0.00 | 86 | 1016.7 |
| 20260508124331 | 62 | 106 | 0.0 | 0.0 | 0.00 | 0.00 | 0.00 | 86 | 1017.0 |
| 20260508123829 | 62 | 116 | 0.0 | 0.0 | 0.00 | 0.00 | 0.00 | 86 | 1017.3 |
| 20260508123328 | 62 | 241 | 0.0 | 0.0 | 0.00 | 0.00 | 0.00 | 87 | 1017.2 |
| 20260508122823 | 62 | 81 | 0.0 | 0.9 | 0.00 | 0.00 | 0.00 | 87 | 1017.0 |
| 20260508122320 | 62 | 5 | 0.0 | 0.9 | 0.00 | 0.00 | 0.00 | 87 | 1016.9 |
| 20260508121818 | 62 | 8 | 0.0 | 0.9 | 0.00 | 0.00 | 0.00 | 86 | 1017.1 |
| 20260508121316 | 61 | 7 | 0.0 | 0.0 | 0.00 | 0.00 | 0.00 | 86 | 1017.0 |
| 20260508120813 | 61 | 108 | 0.0 | 0.0 | 0.00 | 0.00 | 0.00 | 87 | 1016.9 |
| 20260508120311 | 61 | 18 | 0.0 | 0.0 | 0.00 | 0.00 | 0.00 | 87 | 1017.2 |
| 20260508115808 | 61 | 354 | 0.0 | 0.0 | 0.00 | 0.00 | 0.00 | 87 | 1017.2 |
| 20260508115306 | 61 | 99 | 0.0 | 0.9 | 0.00 | 0.00 | 0.00 | 87 | 1016.9 |
| 20260508114802 | 61 | 91 | 0.0 | 0.0 | 0.00 | 0.00 | 0.00 | 87 | 1016.9 |
| 20260508114259 | 62 | 101 | 0.0 | 0.0 | 0.00 | 0.00 | 0.00 | 86 | 1017.2 |
| 20260508113755 | 62 | 354 | 0.0 | 0.9 | 0.00 | 0.00 | 0.00 | 86 | 1016.9 |
| 20260508113254 | 62 | 114 | 1.7 | 2.6 | 0.00 | 0.00 | 0.00 | 86 | 1017.1 |
| 20260508112750 | 62 | 141 | 1.7 | 1.7 | 0.00 | 0.00 | 0.00 | 86 | 1016.8 |
| 20260508112247 | 62 | 154 | 0.9 | 0.9 | 0.00 | 0.00 | 0.00 | 86 | 1016.6 |
| 20260508111743 | 62 | 86 | 0.0 | 0.0 | 0.00 | 0.00 | 0.00 | 85 | 1016.9 |
| 20260508111241 | 62 | 26 | 0.0 | 0.9 | 0.00 | 0.00 | 0.00 | 84 | 1017.1 |
| 20260508110738 | 62 | 127 | 0.0 | 0.9 | 0.00 | 0.00 | 0.00 | 84 | 1016.8 |
| 20260508110235 | 62 | 141 | 0.9 | 0.9 | 0.00 | 0.00 | 0.00 | 84 | 1017.3 |
| 20260508105730 | 62 | 250 | 0.0 | 0.9 | 0.00 | 0.00 | 0.00 | 85 | 1017.4 |
| 20260508105227 | 61 | 251 | 0.0 | 0.0 | 0.00 | 0.00 | 0.00 | 86 | 1017.5 |
| 20260508104724 | 61 | 251 | 0.0 | 0.0 | 0.00 | 0.00 | 0.00 | 87 | 1017.3 |
| 20260508104221 | 61 | 151 | 0.0 | 0.0 | 0.00 | 0.00 | 0.00 | 88 | 1017.3 |
| 20260508103718 | 61 | 151 | 0.0 | 0.0 | 0.00 | 0.00 | 0.00 | 88 | 1016.6 |
| 20260508103215 | 61 | 151 | 0.0 | 0.0 | 0.00 | 0.00 | 0.00 | 88 | 1016.2 |
| 20260508102712 | 61 | 96 | 0.0 | 0.0 | 0.00 | 0.00 | 0.00 | 88 | 1016.2 |
| 20260508102210 | 61 | 27 | 0.0 | 0.9 | 0.00 | 0.00 | 0.00 | 88 | 1016.1 |
| 20260508101707 | 61 | 135 | 0.0 | 0.9 | 0.00 | 0.00 | 0.00 | 88 | 1015.9 |
| 20260508101205 | 61 | 81 | 0.0 | 0.9 | 0.00 | 0.00 | 0.00 | 88 | 1016.1 |
| 20260508100702 | 61 | 38 | 0.0 | 0.0 | 0.00 | 0.00 | 0.00 | 88 | 1016.0 |
| 20260508100200 | 61 | 84 | 0.0 | 0.9 | 0.00 | 0.00 | 0.00 | 87 | 1016.1 |
| 20260508095656 | 62 | 136 | 0.0 | 1.7 | 0.00 | 0.00 | 0.00 | 87 | 1016.1 |
| 20260508095153 | 62 | 56 | 0.0 | 0.0 | 0.00 | 0.00 | 0.00 | 87 | 1015.7 |
| 20260508094650 | 62 | 345 | 0.0 | 0.0 | 0.00 | 0.00 | 0.00 | 87 | 1016.0 |
| 20260508094147 | 62 | 104 | 0.9 | 1.7 | 0.00 | 0.00 | 0.00 | 87 | 1016.3 |
| 20260508093644 | 62 | 107 | 0.0 | 0.0 | 0.00 | 0.00 | 0.00 | 87 | 1016.3 |
| 20260508093142 | 61 | 295 | 0.0 | 0.0 | 0.00 | 0.00 | 0.00 | 87 | 1016.3 |
| 20260508092639 | 61 | 156 | 0.0 | 0.9 | 0.00 | 0.00 | 0.00 | 87 | 1016.0 |
| 20260508092137 | 61 | 308 | 0.0 | 0.0 | 0.00 | 0.00 | 0.00 | 87 | 1016.1 |
| 20260508091634 | 61 | 307 | 0.0 | 0.0 | 0.00 | 0.00 | 0.00 | 87 | 1016.3 |
| 20260508091131 | 61 | 358 | 0.0 | 0.0 | 0.00 | 0.00 | 0.00 | 87 | 1016.1 |
| 20260508090629 | 61 | 358 | 0.0 | 0.0 | 0.00 | 0.00 | 0.00 | 87 | 1016.4 |
| 20260508090126 | 61 | 309 | 0.0 | 0.0 | 0.00 | 0.00 | 0.00 | 86 | 1016.6 |
| 20260508085622 | 62 | 308 | 0.0 | 0.0 | 0.00 | 0.00 | 0.00 | 86 | 1016.6 |
| 20260508085120 | 62 | 219 | 0.0 | 1.7 | 0.00 | 0.00 | 0.00 | 86 | 1016.3 |
| 20260508084616 | 62 | 109 | 1.7 | 1.7 | 0.00 | 0.00 | 0.00 | 85 | 1016.3 |
| 20260508084114 | 62 | 101 | 1.7 | 2.6 | 0.00 | 0.00 | 0.00 | 85 | 1016.0 |
| 20260508083610 | 62 | 132 | 0.9 | 1.7 | 0.00 | 0.00 | 0.00 | 85 | 1016.3 |
| 20260508083108 | 62 | 342 | 0.0 | 1.7 | 0.00 | 0.00 | 0.00 | 86 | 1016.7 |
| 20260508082603 | 62 | 158 | 0.0 | 0.9 | 0.00 | 0.00 | 0.00 | 86 | 1016.7 |
| 20260508082100 | 62 | 127 | 0.0 | 0.9 | 0.00 | 0.00 | 0.00 | 85 | 1017.1 |
| 20260508081558 | 62 | 153 | 0.9 | 0.9 | 0.00 | 0.00 | 0.00 | 84 | 1017.1 |
| 20260508081054 | 62 | 170 | 0.9 | 0.9 | 0.00 | 0.00 | 0.00 | 85 | 1017.3 |
| 20260508080552 | 62 | 248 | 0.0 | 0.0 | 0.00 | 0.00 | 0.00 | 85 | 1017.5 |
| 20260508080049 | 62 | 248 | 0.0 | 0.0 | 0.00 | 0.00 | 0.00 | 85 | 1017.7 |
| 20260508075545 | 62 | 248 | 0.0 | 0.0 | 0.00 | 0.00 | 0.00 | 85 | 1018.0 |
| 20260508075043 | 62 | 248 | 0.0 | 0.0 | 0.00 | 0.00 | 0.00 | 85 | 1017.9 |
| 20260508074541 | 62 | 248 | 0.0 | 0.0 | 0.00 | 0.00 | 0.00 | 86 | 1017.7 |
| 20260508074037 | 62 | 248 | 0.0 | 0.0 | 0.00 | 0.00 | 0.00 | 86 | 1017.4 |
| 20260508073535 | 61 | 248 | 0.0 | 0.0 | 0.00 | 0.00 | 0.00 | 85 | 1017.1 |
| 20260508073032 | 61 | 248 | 0.0 | 0.0 | 0.00 | 0.00 | 0.00 | 86 | 1017.1 |
| 20260508072528 | 61 | 248 | 0.0 | 0.0 | 0.00 | 0.00 | 0.00 | 85 | 1017.2 |
| 20260508072025 | 61 | 248 | 0.0 | 0.9 | 0.00 | 0.00 | 0.00 | 85 | 1017.2 |
| 20260508071523 | 61 | 248 | 0.0 | 0.0 | 0.00 | 0.00 | 0.00 | 85 | 1017.3 |
| 20260508071020 | 61 | 248 | 0.0 | 0.0 | 0.00 | 0.00 | 0.00 | 85 | 1017.3 |
| 20260508070518 | 61 | 248 | 0.0 | 0.9 | 0.00 | 0.00 | 0.00 | 85 | 1017.3 |
| 20260508070016 | 61 | 301 | 0.0 | 0.0 | 0.00 | 0.00 | 0.00 | 85 | 1017.4 |
| 20260508065514 | 61 | 301 | 0.0 | 0.0 | 0.00 | 0.00 | 0.00 | 85 | 1017.5 |